User: anonymous   Login
Location: Unspecified
(0.0000°N, 0.0000°E)
Time: 20:32:56
(UTC+00:00)
Language:

IRIDIUM 109 - Orbit

View from above orbital plane
View from above orbital plane
View from above satellite
View from above satellite

Ground track
Ground track

The orbit data is extracted from the following two-line orbital elements,

1 41919U 17003C   24056.77382220  .00000229  00000-0  74762-4 0  9996
2 41919  86.3912  80.5365 0002094  86.4828 273.6607 14.34217547372453
Epoch (UTC): 25 February 2024 18:34:18
Eccentricity: 0.0002094
inclination: 86.3912°
perigee height: 776 km
apogee height: 779 km
right ascension of ascending node: 80.5365°
argument of perigee: 86.4828°
revolutions per day: 14.34217547
mean anomaly at epoch: 273.6607°
orbit number at epoch: 37245

The dashed part of the orbit path shows where the satellite is in the earth's shadow,  

DLR